Location: Ferchesar
(52.6477°N, 12.4298°E)
Time: 16:35:39
(UTC+01:00)

Vanguard 3 - Pass Details

Date: 11 December 2021
Orbit: 508 x 3260 km, 33.3° (Epoch: 22 January)

Event Time Altitude Azimuth Distance (km) Brightness Sun altitude
Rises 00:58:06 0° 210° (SSW) 6,089 - -58.6°
Reaches altitude 10° 01:02:38 10° 199° (SSW) 5,431 - -58.3°
Maximum altitude 01:15:59 28° 149° (SSE) 4,700 - -57.3°
Exits shadow 01:21:26 25° 126° (SE) 5,003 11.0 -56.8°
Drops below altitude 10° 01:30:54 10° 100° (E) 6,120 11.7 -56.0°
Sets 01:36:23 0° 91° (E) 6,966 12.2 -55.5°
